Location: Москва
(55.7518°N, 37.5952°E)
Time: 05:45:51
(UTC+03:00)

ISS - Pass Details

Date: 01 February 2021
Orbit: 417 x 422 km, 51.6° (Epoch: 17 May)

Event Time Altitude Azimuth Distance (km) Brightness Sun altitude
Rises 17:27:58 0° 262° (W) 2,372 1.9 -3.8°
Reaches altitude 10° 17:30:08 10° 255° (WSW) 1,508 0.9 -4.1°
Maximum altitude 17:33:20 41° 184° (S) 631 -2.6 -4.5°
Drops below altitude 10° 17:36:33 10° 113° (ESE) 1,511 -1.3 -4.9°
Enters shadow 17:38:29 - 106° (ESE) 2,284 -0.5 -5.2°
